Flag for Norway Weather past 2 weeks in Brumunddal, Norway

Now
68 °F

Passing clouds.


Feels Like: 68 °F
Forecast: 62 / 86 °F
Wind: 3 mph from North

Location: Oslo Gardermoen Airport

Current Time: Jul 23, 2014 at 9:31:49 AM

Latest Report: Jul 23, 2014 at 7:50 AM


Visibility: N/A

Pressure: 30.33 "Hg

Humidity: 69%

Dew point: 57 °F

Location of BrumunddalLocation

Historic Weather in Brumunddal — Graph

°F

Brumunddal temperature yesterday

Maximum temperature yesterday: 86 °F (at 5:20 PM)
Minimum temperature yesterday: 59 °F (at 4:50 AM)
Average temperature yesterday: 73 °F

Past Weeks' High & Low Weather Summary

 TemperatureHumidityPressure
High86 °F (Jul 22, 5:20 PM)100% (Jul 16, 12:50 AM)30.33 "Hg (Jul 16, 12:50 AM)
Low50 °F (Jul 18, 3:20 AM)27% (Jul 12, 7:50 PM)29.68 "Hg (Jul 14, 1:20 AM)
Average68 °F65%30.02 "Hg
* Reported Jul 8 7:20 AM — Jul 23 7:20 AM, Brumunddal, Weather by CustomWeather, © 2014

Note: Actual official high and low records may vary slightly from our data, if they occured in-between our weather recording intervals... More about our weather records

Advertising

Brumunddal weather history for previous 24 hours

 ConditionsComfort  
Time TempWeatherWind HumidityBarometerVisibility
7:20 AM
Jul 23
66 °FPassing clouds.3 mph73%30.33 "HgN/A
6:50 AM64 °FSunny.3 mph78%30.33 "Hg10 mi
5:50 AM61 °FSunny.5 mph83%30.33 "Hg10 mi
5:20 AM61 °FClear.5 mph77%30.33 "Hg10 mi
4:50 AM59 °FClear.3 mph82%30.30 "Hg10 mi
4:20 AM61 °FPassing clouds.5 mph77%30.30 "HgN/A
3:50 AM61 °FClear.6 mph77%30.30 "Hg10 mi
3:20 AM63 °FPassing clouds.3 mph73%30.30 "HgN/A
2:50 AM63 °FClear.3 mph73%30.30 "Hg10 mi
2:20 AM63 °FClear.2 mph73%30.30 "Hg10 mi
1:50 AM64 °FPassing clouds.3 mph73%30.30 "HgN/A
6:50 PM
Jul 22
82 °FSunny.9 mph37%30.24 "Hg10 mi
6:20 PM82 °FPassing clouds.7 mph37%30.24 "HgN/A
5:50 PM86 °FSunny.7 mph31%30.24 "Hg10 mi
5:20 PM86 °FSunny.5 mph31%30.21 "Hg10 mi
4:50 PM84 °FPassing clouds.5 mph33%30.24 "HgN/A
4:20 PM84 °FPassing clouds.5 mph35%30.24 "HgN/A
3:50 PM82 °FSunny.2 mph35%30.24 "Hg10 mi
3:20 PM82 °FPassing clouds.5 mph35%30.24 "HgN/A
2:50 PM84 °FPassing clouds.5 mph35%30.27 "HgN/A
2:20 PM82 °FPassing clouds.5 mph40%30.27 "HgN/A
1:50 PM84 °FPassing clouds.5 mph37%30.27 "HgN/A
1:20 PM82 °FPassing clouds.5 mph42%30.27 "HgN/A
12:50 PM81 °FPassing clouds.3 mph42%30.27 "HgN/A
12:20 PM81 °FSunny.3 mph48%30.27 "Hg10 mi
11:50 AM79 °FSunny.1 mph51%30.27 "Hg10 mi
11:20 AM79 °FSunny.2 mph48%30.27 "Hg10 mi
10:50 AM77 °FSunny.3 mph47%30.27 "Hg10 mi
10:20 AM75 °FSunny.5 mph57%30.27 "Hg10 mi
9:50 AM75 °FSunny.3 mph57%30.27 "Hg10 mi
9:20 AM73 °FSunny.3 mph53%30.27 "Hg10 mi
Weather by CustomWeather, © 2014

See weather overviewHow to use our weather pages